Lebanon, NH

9:24 PM EDT on October 16, 2019 (GMT -0400)
Lebanon Municipal

Weather History for KLEB - August, 2019

Change the Weather History Date:

Monday, August 19, 2019

  Actual Average Record
Temperature  
Mean Temperature 76 °F -  
Max Temperature 88 °F 79 °F 90 °F (1971)
Min Temperature 64 °F 53 °F 33 °F (1996)
Cooling Degree Days 10    
Growing Degree Days 26 (Base 50)    
Moisture  
Dew Point 64 °F    
Average Humidity 78    
Maximum Humidity 94    
Minimum Humidity 46    
Precipitation  
Precipitation 0.00 in - - ()
Sea Level Pressure  
Sea Level Pressure 29.92 in    
Wind  
Wind Speed 3 mph (SSW)    
Max Wind Speed 14 mph    
Max Gust Speed -    
Visibility 7 miles    
Events Fog    
Averages and records for this station are not official NWS values.
T = Trace of Precipitation, MM = Missing Value Source: NWS Daily Summary

Daily Weather History Graph

Daily Weather History Graph

Search for Another Location

Airport or City:

Astronomy

Aug. 19, 2019 Rise Set
Actual Time 5:58 AM EDT 7:46 PM EDT
Civil Twilight 5:27 AM EDT 8:17 PM EDT
Nautical Twilight 4:49 AM EDT 8:54 PM EDT
Astronomical Twilight 4:09 AM EDT 9:35 PM EDT
Moon 9:59 PM EDT (8/19) 9:42 AM EDT (8/19)
Length of Visible Light 14h 50m
Length of Day
13h 48m
Waning Gibbous, 85% of the Moon is Illuminated
Aug 19
Waning Gibbous
Aug 23
Last Quarter
Aug 30
New
Sep 5
First Quarter
Sep 14
Full

Hourly Weather History & Observations

Time (EDT) Temp. Heat Index Dew Point Humidity Pressure Visibility Wind Dir Wind Speed Gust Speed Precip Events Conditions
12:53 AM 69.1 °F - 66.0 °F 90% 29.88 in 4.0 mi Calm Calm - N/A   Clear
1:08 AM 69.1 °F - 66.0 °F 90% 29.91 in 5.0 mi Calm Calm - N/A   Scattered Clouds
1:53 AM 68.0 °F - 64.9 °F 90% 29.89 in 6.0 mi SSE 4.6 mph - N/A   Clear
2:53 AM 69.1 °F - 64.9 °F 87% 29.90 in 9.0 mi Calm Calm - N/A   Scattered Clouds
3:53 AM 66.0 °F - 63.0 °F 90% 29.92 in 3.0 mi Calm Calm - N/A   Clear
4:05 AM 64.9 °F - 62.1 °F 90% 29.95 in 1.8 mi Calm Calm - N/A   Clear
4:16 AM 66.0 °F - 63.0 °F 90% 29.95 in 3.0 mi South 3.5 mph - N/A   Clear
4:53 AM 64.9 °F - 62.1 °F 90% 29.92 in 3.0 mi Calm Calm - N/A   Clear
4:55 AM 64.9 °F - 62.1 °F 90% 29.95 in 2.5 mi Calm Calm - N/A   Partly Cloudy
5:01 AM 66.0 °F - 62.1 °F 87% 29.94 in 1.0 mi NE 4.6 mph - N/A   Mist
5:06 AM 64.9 °F - 62.1 °F 90% 29.95 in 0.2 mi ENE 4.6 mph - N/A Fog Fog
5:20 AM 64.9 °F - 62.1 °F 90% 29.95 in 1.0 mi Calm Calm - N/A   Mist
5:27 AM 64.0 °F - 61.0 °F 90% 29.95 in 4.0 mi Calm Calm - N/A   Scattered Clouds
5:36 AM 64.9 °F - 62.1 °F 90% 29.95 in 2.5 mi Calm Calm - N/A   Partly Cloudy
5:46 AM 64.0 °F - 61.0 °F 90% 29.95 in 3.0 mi Calm Calm - N/A   Clear
5:50 AM 64.4 °F - 62.6 °F 94% 29.95 in 5.0 mi Calm Calm - N/A   Partly Cloudy
5:53 AM 64.9 °F - 62.1 °F 90% 29.92 in 5.0 mi Calm Calm - N/A   Partly Cloudy
6:53 AM 66.9 °F - 64.0 °F 90% 29.94 in 7.0 mi Calm Calm - N/A   Clear
7:25 AM 69.1 °F - 66.0 °F 90% 29.96 in 10.0 mi Calm Calm - N/A   Scattered Clouds
7:35 AM 70.0 °F - 66.0 °F 87% 29.96 in 10.0 mi South 3.5 mph - N/A   Mostly Cloudy
7:42 AM 70.0 °F - 64.9 °F 84% 29.96 in 10.0 mi South 6.9 mph - N/A   Mostly Cloudy
7:53 AM 70.0 °F - 64.9 °F 84% 29.94 in 10.0 mi SSW 6.9 mph - N/A   Mostly Cloudy
8:33 AM 72.0 °F - 66.0 °F 81% 29.97 in 6.0 mi South 8.1 mph - N/A   Mostly Cloudy
8:45 AM 72.0 °F - 66.0 °F 81% 29.97 in 10.0 mi South 8.1 mph - N/A   Mostly Cloudy
8:53 AM 73.0 °F - 66.0 °F 79% 29.94 in 10.0 mi South 5.8 mph - N/A   Mostly Cloudy
9:53 AM 75.9 °F - 66.0 °F 71% 29.91 in 10.0 mi South 6.9 mph - N/A   Scattered Clouds
10:53 AM 79.0 °F - 66.0 °F 64% 29.91 in 10.0 mi SW 4.6 mph - N/A   Clear
11:53 AM 82.9 °F 85.4 °F 66.9 °F 58% 29.89 in 10.0 mi SW 6.9 mph - N/A   Clear
12:53 PM 84.9 °F 88.2 °F 68.0 °F 57% 29.88 in 10.0 mi Variable 6.9 mph - N/A   Partly Cloudy
1:53 PM 86.0 °F 88.8 °F 66.9 °F 53% 29.89 in 10.0 mi SSW 10.4 mph - N/A   Scattered Clouds
2:53 PM 87.1 °F 88.3 °F 64.0 °F 46% 29.87 in 10.0 mi WSW 13.8 mph - N/A   Mostly Cloudy
3:53 PM 84.9 °F 85.9 °F 63.0 °F 48% 29.87 in 10.0 mi SW 9.2 mph - N/A   Clear
4:53 PM 86.0 °F 87.3 °F 64.0 °F 48% 29.87 in 10.0 mi WSW 6.9 mph - N/A   Clear
5:53 PM 84.9 °F 86.1 °F 64.0 °F 49% 29.86 in 10.0 mi SW 6.9 mph - N/A   Partly Cloudy
6:53 PM 82.9 °F 84.4 °F 64.0 °F 53% 29.87 in 10.0 mi WSW 6.9 mph - N/A   Clear
7:53 PM 75.9 °F - 66.0 °F 71% 29.90 in 10.0 mi South 8.1 mph - N/A   Partly Cloudy
8:53 PM 73.9 °F - 64.0 °F 71% 29.92 in 10.0 mi SSW 9.2 mph - N/A   Clear
9:53 PM 72.0 °F - 64.9 °F 78% 29.94 in 10.0 mi Calm Calm - N/A   Partly Cloudy
10:53 PM 75.0 °F - 60.1 °F 60% 29.95 in 10.0 mi West 6.9 mph - N/A   Clear
11:53 PM 66.0 °F - 60.1 °F 81% 29.96 in 10.0 mi South 4.6 mph - N/A   Clear